When you browse on this site, cookies collect data to enhance your experience and personalize the content and advertising you see.
Visit our Privacy Policy to learn more. By continuing to use the site, you agree to this use of cookies and data.
  • In United Kingdom
  • List of Countries
  • For 7 days
  • Water Temperature
  • Satellite Maps
  • Weather Map
  • Weather Widgets
  • user-avatar
    Login

    Hourly Weather Coleraine

    Today, 13 December, Thursday

    Time Temperature Precipitation Wind Pressure Humidity
    00:00 +4°C° 0 mm 12 mps 754 mmHg 83%
    01:00 +4°C° 0.2 mm 12 mps 754 mmHg 83%
    02:00 +4°C° 0.2 mm 13 mps 754 mmHg 82%
    03:00 +4°C° 0.2 mm 13 mps 754 mmHg 82%
    04:00 +3°C° 0.2 mm 13 mps 754 mmHg 82%
    05:00 +3°C° 0.2 mm 13 mps 754 mmHg 81%
    06:00 +3°C° 0.2 mm 13 mps 754 mmHg 81%
    07:00 +3°C° 0.2 mm 13 mps 754 mmHg 81%
    08:00 +3°C° 0.2 mm 12 mps 755 mmHg 80%
    09:00 +3°C° 0.2 mm 12 mps 755 mmHg 80%
    10:00 +3°C° 0.1 mm 12 mps 755 mmHg 80%
    11:00 +3°C° 0.1 mm 12 mps 756 mmHg 79%
    12:00 +3°C° 0 mm 12 mps 756 mmHg 77%
    13:00 +3°C° 0.1 mm 11 mps 757 mmHg 78%
    14:00 +3°C° 0.1 mm 11 mps 757 mmHg 78%
    15:00 +3°C° 0.1 mm 11 mps 757 mmHg 79%
    16:00 +3°C° 0.1 mm 11 mps 758 mmHg 79%
    17:00 +3°C° 0.1 mm 11 mps 758 mmHg 79%
    18:00 +3°C° 0.1 mm 10 mps 758 mmHg 80%
    19:00 +3°C° 0.1 mm 10 mps 759 mmHg 80%
    20:00 +3°C° 0.1 mm 10 mps 759 mmHg 79%
    21:00 +2°C° 0.1 mm 10 mps 760 mmHg 79%
    22:00 +2°C° 0.1 mm 10 mps 760 mmHg 80%
    23:00 +2°C° 0.1 mm 10 mps 760 mmHg 80%

    Tomorrow, 14 December, Friday

    Time Temperature Precipitation Wind Pressure Humidity
    00:00 +2°C° 0.1 mm 10 mps 760 mmHg 80%
    01:00 +2°C° 0.1 mm 9 mps 760 mmHg 80%
    02:00 +2°C° 0.1 mm 9 mps 760 mmHg 80%
    03:00 +2°C° 0.1 mm 9 mps 760 mmHg 80%
    04:00 +2°C° 0 mm 9 mps 760 mmHg 81%
    05:00 +2°C° 0 mm 9 mps 760 mmHg 82%
    06:00 +2°C° 0 mm 9 mps 760 mmHg 83%
    07:00 +2°C° 0 mm 10 mps 760 mmHg 83%
    08:00 +3°C° 0 mm 10 mps 760 mmHg 83%
    09:00 +3°C° 0 mm 10 mps 760 mmHg 83%
    10:00 +3°C° 0 mm 11 mps 759 mmHg 83%
    11:00 +3°C° 0 mm 11 mps 759 mmHg 82%
    12:00 +3°C° 0 mm 11 mps 759 mmHg 81%
    13:00 +3°C° 0.3 mm 11 mps 759 mmHg 82%
    14:00 +4°C° 0.3 mm 11 mps 758 mmHg 84%
    15:00 +4°C° 0.3 mm 11 mps 758 mmHg 85%
    16:00 +4°C° 0.5 mm 11 mps 758 mmHg 86%
    17:00 +4°C° 0.5 mm 11 mps 758 mmHg 86%
    18:00 +4°C° 0.5 mm 12 mps 757 mmHg 86%
    19:00 +4°C° 0.1 mm 11 mps 757 mmHg 87%
    20:00 +4°C° 0.1 mm 11 mps 757 mmHg 87%
    21:00 +4°C° 0.1 mm 11 mps 757 mmHg 88%
    22:00 +6°C° 0.1 mm 10 mps 756 mmHg 88%
    23:00 +6°C° 0.1 mm 10 mps 756 mmHg 88%

    Day after tomorrow, 15 December, Saturday

    Time Temperature Precipitation Wind Pressure Humidity
    00:00 +6°C° 0.1 mm 10 mps 756 mmHg 88%
    01:00 +6°C° 0.1 mm 10 mps 755 mmHg 88%
    02:00 +6°C° 0.1 mm 11 mps 755 mmHg 87%
    03:00 +6°C° 0.1 mm 11 mps 754 mmHg 87%
    04:00 +4°C° 0.3 mm 12 mps 753 mmHg 86%
    05:00 +4°C° 0.3 mm 13 mps 752 mmHg 86%
    06:00 +4°C° 0.3 mm 14 mps 750 mmHg 85%
    07:00 +4°C° 0.5 mm 15 mps 749 mmHg 85%
    08:00 +4°C° 0.5 mm 15 mps 748 mmHg 84%
    09:00 +4°C° 0.5 mm 16 mps 747 mmHg 84%
    10:00 +4°C° 0.2 mm 16 mps 746 mmHg 85%
    11:00 +5°C° 0.2 mm 16 mps 744 mmHg 85%
    12:00 +5°C° 0.2 mm 16 mps 743 mmHg 86%
    13:00 +5°C° 1 mm 16 mps 741 mmHg 86%
    14:00 +5°C° 1 mm 16 mps 740 mmHg 86%
    15:00 +5°C° 1 mm 16 mps 738 mmHg 87%
    16:00 +6°C° 1.9 mm 16 mps 736 mmHg 87%
    17:00 +8°C° 1.9 mm 15 mps 734 mmHg 87%
    18:00 +8°C° 1.9 mm 14 mps 733 mmHg 88%
    19:00 +8°C° 0.7 mm 12 mps 732 mmHg 89%
    20:00 +7°C° 0.7 mm 10 mps 732 mmHg 90%
    21:00 +6°C° 0.7 mm 8 mps 732 mmHg 91%
    22:00 +6°C° 1.3 mm 10 mps 734 mmHg 85%
    23:00 +4°C° 1.3 mm 12 mps 736 mmHg 80%

    16 December, Sunday

    Time Temperature Precipitation Wind Pressure Humidity
    00:00 +4°C° 1.3 mm 14 mps 737 mmHg 74%
    01:00 +3°C° 0.1 mm 12 mps 739 mmHg 75%
    02:00 +3°C° 0.1 mm 11 mps 741 mmHg 77%
    03:00 +3°C° 0.1 mm 10 mps 742 mmHg 78%
    04:00 +2°C° 0.1 mm 9 mps 743 mmHg 79%
    05:00 +2°C° 0.1 mm 9 mps 743 mmHg 81%
    06:00 +2°C° 0.1 mm 9 mps 744 mmHg 82%
    07:00 +1°C° 0 mm 8 mps 744 mmHg 83%
    08:00 +1°C° 0 mm 8 mps 744 mmHg 84%
    09:00 +1°C° 0 mm 8 mps 745 mmHg 85%
    10:00 +2°C° 0 mm 8 mps 745 mmHg 84%
    11:00 +2°C° 0 mm 8 mps 746 mmHg 82%
    12:00 +4°C° 0 mm 8 mps 746 mmHg 81%
    13:00 +4°C° 0 mm 8 mps 746 mmHg 81%
    14:00 +4°C° 0 mm 7 mps 746 mmHg 81%
    15:00 +4°C° 0 mm 7 mps 746 mmHg 81%
    16:00 +4°C° 0 mm 7 mps 747 mmHg 83%
    17:00 +3°C° 0 mm 7 mps 747 mmHg 84%
    18:00 +3°C° 0 mm 7 mps 748 mmHg 86%
    19:00 +3°C° 0 mm 6 mps 748 mmHg 87%
    20:00 +3°C° 0 mm 6 mps 749 mmHg 88%
    21:00 +2°C° 0 mm 6 mps 750 mmHg 89%
    22:00 +2°C° 0 mm 6 mps 750 mmHg 89%
    23:00 +2°C° 0 mm 5 mps 750 mmHg 90%

    17 December, Monday

    Time Temperature Precipitation Wind Pressure Humidity
    00:00 +2°C° 0 mm 5 mps 751 mmHg 91%
    01:00 +2°C° 0 mm 5 mps 751 mmHg 91%
    02:00 +2°C° 0 mm 5 mps 751 mmHg 91%
    03:00 +1°C° 0 mm 5 mps 752 mmHg 91%
    04:00 +1°C° 0 mm 5 mps 751 mmHg 91%
    05:00 +1°C° 0 mm 5 mps 751 mmHg 92%
    06:00 +1°C° 0 mm 5 mps 751 mmHg 92%
    07:00 +1°C° 0 mm 6 mps 751 mmHg 90%
    08:00 +2°C° 0 mm 7 mps 751 mmHg 89%
    09:00 +1°C° 0 mm 8 mps 751 mmHg 87%
    10:00 +3°C° 0 mm 9 mps 750 mmHg 85%
    11:00 +4°C° 0 mm 11 mps 749 mmHg 82%
    12:00 +5°C° 0 mm 12 mps 747 mmHg 80%
    13:00 +7°C° 1 mm 13 mps 746 mmHg 82%
    14:00 +7°C° 1 mm 13 mps 745 mmHg 84%
    15:00 +6°C° 1 mm 14 mps 744 mmHg 86%
    16:00 +7°C° 0.9 mm 13 mps 744 mmHg 87%
    17:00 +7°C° 0.9 mm 11 mps 743 mmHg 87%
    18:00 +7°C° 0.9 mm 10 mps 743 mmHg 88%
    19:00 +6°C° 0 mm 9 mps 743 mmHg 87%
    20:00 +6°C° 0 mm 9 mps 742 mmHg 86%
    21:00 +6°C° 0 mm 8 mps 742 mmHg 85%
    22:00 +6°C° 0.1 mm 8 mps 742 mmHg 87%
    23:00 +5°C° 0.1 mm 8 mps 742 mmHg 88%

    18 December, Tuesday

    Time Temperature Precipitation Wind Pressure Humidity
    00:00 +5°C° 0.1 mm 7 mps 742 mmHg 89%
    01:00 +5°C° 0.2 mm 7 mps 741 mmHg 91%
    02:00 +5°C° 0.2 mm 6 mps 740 mmHg 92%
    03:00 +5°C° 0.2 mm 5 mps 739 mmHg 93%
    04:00 +5°C° 0.2 mm 5 mps 739 mmHg 93%
    05:00 +5°C° 0.2 mm 4 mps 738 mmHg 94%
    06:00 +5°C° 0.2 mm 4 mps 738 mmHg 94%
    07:00 +5°C° 0.3 mm 4 mps 738 mmHg 94%
    08:00 +5°C° 0.3 mm 4 mps 737 mmHg 94%
    09:00 +5°C° 0.3 mm 4 mps 737 mmHg 94%
    10:00 +5°C° 0.5 mm 4 mps 737 mmHg 94%
    11:00 +5°C° 0.5 mm 4 mps 737 mmHg 93%
    12:00 +5°C° 0.5 mm 4 mps 737 mmHg 92%
    13:00 +5°C° 0.2 mm 4 mps 737 mmHg 91%
    14:00 +6°C° 0.2 mm 5 mps 738 mmHg 89%
    15:00 +6°C° 0.2 mm 5 mps 738 mmHg 87%
    16:00 +5°C° 0.2 mm 5 mps 739 mmHg 88%
    17:00 +5°C° 0.2 mm 5 mps 739 mmHg 89%
    18:00 +3°C° 0.2 mm 5 mps 739 mmHg 89%
    19:00 +3°C° 0 mm 5 mps 739 mmHg 90%
    20:00 +3°C° 0 mm 5 mps 740 mmHg 91%
    21:00 +3°C° 0 mm 6 mps 740 mmHg 91%
    22:00 +3°C° 0 mm 6 mps 740 mmHg 91%
    23:00 +2°C° 0 mm 6 mps 740 mmHg 91%
    Show more